Weather History for KHYA - November, 2012

Change the Weather History Date:

Friday, November 16, 2012

  Actual Average Record
Temperature  
Mean Temperature 44 °F -  
Max Temperature 48 °F 49 °F 70 °F (1993)
Min Temperature 41 °F 35 °F 14 °F (1933)
Degree Days  
Heating Degree Days 20    
Moisture  
Dew Point 35 °F    
Average Humidity 71    
Maximum Humidity 76    
Minimum Humidity 63    
Precipitation  
Precipitation 0.00 in - - ()
Sea Level Pressure  
Sea Level Pressure 30.29 in    
Wind  
Wind Speed 9 mph (NNE)    
Max Wind Speed 15 mph    
Max Gust Speed 22 mph    
Visibility 10 miles    
Events      
Averages and records for this station are not official NWS values.
T = Trace of Precipitation, MM = Missing Value Source: NWS Daily Summary

Daily Weather History Graph

Daily Weather History Graph

Search for Another Location

Airport or City:

Trip Planner

Search our weather history database for the weather conditions in past years. The results will help you decide how hot, cold, wet, or windy it might be!

Date:

Astronomy

Nov. 16, 2012 Rise Set
Actual Time 6:31 AM EST 4:19 PM EST
Civil Twilight 6:02 AM EST 4:49 PM EST
Nautical Twilight 5:28 AM EST 5:23 PM EST
Astronomical Twilight 4:55 AM EST 5:56 PM EST
Moon 9:24 AM EST (11/16) 7:14 PM EST (11/16)
Length of Visible Light 10h 47m
Length of Day
9h 47m
Waxing Crescent, 11% of the Moon is Illuminated
Nov 16
Waxing Crescent
Nov 20
First Quarter
Nov 28
Full
Dec 6
Last Quarter
Dec 13
New

Hourly Weather History & Observations

Time (EST) Temp. Windchill Dew Point Humidity Pressure Visibility Wind Dir Wind Speed Gust Speed Precip Events Conditions
12:56 AM 43.0 °F 37.7 °F 34.0 °F 71% 30.25 in 10.0 mi NNE 9.2 mph - N/A   Overcast
1:56 AM 43.0 °F 38.8 °F 34.0 °F 71% 30.25 in 10.0 mi NNE 6.9 mph - N/A   Overcast
2:56 AM 42.1 °F 38.4 °F 34.0 °F 73% 30.25 in 10.0 mi ENE 5.8 mph - N/A   Overcast
3:56 AM 43.0 °F 38.2 °F 34.0 °F 71% 30.24 in 10.0 mi NNE 8.1 mph - N/A   Overcast
4:56 AM 43.0 °F 38.8 °F 34.0 °F 71% 30.24 in 10.0 mi North 6.9 mph - N/A   Overcast
5:56 AM 43.0 °F 38.2 °F 35.1 °F 74% 30.24 in 10.0 mi NNE 8.1 mph - N/A   Overcast
6:56 AM 44.1 °F 39.0 °F 35.1 °F 71% 30.25 in 10.0 mi NNE 9.2 mph - N/A   Overcast
7:56 AM 44.1 °F 39.0 °F 36.0 °F 73% 30.26 in 10.0 mi NNE 9.2 mph - N/A   Overcast
8:56 AM 46.0 °F 40.6 °F 36.0 °F 68% 30.27 in 10.0 mi North 11.5 mph 17.3 mph N/A   Overcast
9:56 AM 46.0 °F 40.2 °F 35.1 °F 66% 30.28 in 10.0 mi NNE 12.7 mph - N/A   Overcast
10:56 AM 48.0 °F - 36.0 °F 63% 30.26 in 10.0 mi North 15.0 mph 21.9 mph N/A   Mostly Cloudy
11:56 AM 46.0 °F 40.6 °F 35.1 °F 66% 30.26 in 10.0 mi North 11.5 mph - N/A   Overcast
12:56 PM 46.0 °F 40.6 °F 35.1 °F 66% 30.26 in 10.0 mi NNE 11.5 mph 17.3 mph N/A   Overcast
1:56 PM 45.0 °F 40.1 °F 35.1 °F 68% 30.27 in 10.0 mi North 9.2 mph - N/A   Overcast
2:56 PM 45.0 °F 40.1 °F 35.1 °F 68% 30.27 in 10.0 mi North 9.2 mph - N/A   Overcast
3:56 PM 43.0 °F 38.2 °F 34.0 °F 71% 30.28 in 10.0 mi North 8.1 mph - N/A   Overcast
4:56 PM 43.0 °F 37.7 °F 35.1 °F 74% 30.29 in 10.0 mi NNE 9.2 mph - N/A   Overcast
5:13 PM 42.8 °F 38.0 °F 35.6 °F 76% 30.29 in 10.0 mi North 8.1 mph - N/A   Scattered Clouds
5:56 PM 43.0 °F 38.8 °F 35.1 °F 74% 30.32 in 10.0 mi NNE 6.9 mph - N/A   Scattered Clouds
5:59 PM 42.8 °F 38.6 °F 35.6 °F 76% 30.31 in 10.0 mi North 6.9 mph - N/A   Mostly Cloudy
6:56 PM 43.0 °F 37.2 °F 36.0 °F 76% 30.31 in 10.0 mi North 10.4 mph - N/A   Mostly Cloudy
7:56 PM 42.1 °F 36.6 °F 34.0 °F 73% 30.33 in 10.0 mi North 9.2 mph - N/A   Partly Cloudy
8:56 PM 41.0 °F 38.0 °F 34.0 °F 76% 30.35 in 10.0 mi NNE 4.6 mph - N/A   Clear
9:56 PM 41.0 °F 35.8 °F 33.1 °F 73% 30.36 in 10.0 mi NNE 8.1 mph - N/A   Clear
10:56 PM 41.0 °F 37.1 °F 33.1 °F 73% 30.37 in 10.0 mi North 5.8 mph - N/A   Clear
11:56 PM 43.0 °F 38.2 °F 34.0 °F 71% 30.39 in 10.0 mi North 8.1 mph - N/A   Clear